Regional Weather Roundup
Issued by NWS

Home | Current Version | Previous Version | Graphics & Text | Print | Product List | Glossary On
Versions: 1 2 3 4 5 6 7 8 9 10 11 12 13 14 15 16 17 18 19 20 21 22 23 24 25 26 27 28 29 30 31 32 33 34 35 36 37 38 39 40 41 42 43 44 45 46 47 48 49 50
447
ASUS44 KMEG 262010
RWRTN
TENNESSEE HOURLY STATE WEATHER ROUNDUP
NATIONAL WEATHER SERVICE MEMPHIS TN
300 PM CDT MON JUN 26 2017

TNZ002-004-019-021-049-052-054-088>092-262100-
WEST TENNESSEE

CITY           SKY/WX    TMP DP  RH WIND       PRES   REMARKS
MEMPHIS INTL   PTSUNNY   86  60  41 VRB6      30.12F
NWS MEMPHIS      N/A     83 N/A N/A MISG        N/A
JACKSON        SUNNY     82  57  42 VRB6      30.14F
SOMERVILLE     SUNNY     82  61  47 CALM      30.12F
COVINGTON      SUNNY     81  55  41 CALM      30.14F
UNION CITY     SUNNY     79  55  44 CALM      30.14F
BOLIVAR        SUNNY     82  59  44 SW6       30.12F
PARIS          SUNNY     77  55  47 CALM      30.14F
HUNTINGDON     SUNNY     79  57  47 CALM      30.14F
LEXINGTON      SUNNY     79  55  44 CALM      30.14F
SELMER         SUNNY     81  59  47 VRB3      30.13F
SAVANNAH       SUNNY     81  61  50 N6        30.12F
$$

TNZ008-025-027-028-033-062-065-066-262100-
NORTH MIDDLE TENNESSEE

CITY           SKY/WX    TMP DP  RH WIND       PRES   REMARKS
NASHVILLE      PTSUNNY   81  53  37 NW7       30.14F
PORTLAND       SUNNY     77  52  41 N8        30.14F
CLARKSVILLE    SUNNY     78  50  37 W8        30.15F
SMYRNA         MOSUNNY   79  55  43 VRB5      30.15F
COOKEVILLE     SUNNY     77  57  50 N8        30.15F
GALLATIN       SUNNY     81  52  36 VRB6      30.16F
CROSSVILLE     PTSUNNY   73  57  57 W7        30.18F
$$

TNZ061-075-076-078-094-096-097-262100-
SOUTH MIDDLE TENNESSEE

CITY           SKY/WX    TMP DP  RH WIND       PRES   REMARKS
FAYETTEVILLE   SUNNY     79  55  44 W5G12     30.14F
TULLAHOMA      SUNNY     77  57  50 VRB3      30.16F
WINCHESTER     SUNNY     77  55  47 W5        30.16F
MCMINNVILLE    SUNNY     77  61  57 VRB3      30.15F
COLUMBIA       SUNNY     79  54  41 VRB6      30.13F
SHELBYVILLE    SUNNY     77  57  50 N5        30.14F
$$

TNZ017-018-042-046-047-262100-
NORTHEAST TENNESSEE

CITY           SKY/WX    TMP DP  RH WIND       PRES   REMARKS
TRI CITIES     PTSUNNY   76  54  46 SW10      30.14F
ELIZABETHTON   PTSUNNY   75  52  43 W7        30.14F
$$

TNZ012-013-036-069-073-074-262100-
CENTRAL EAST TENNESSEE

CITY           SKY/WX    TMP DP  RH WIND       PRES   REMARKS
KNOXVILLE      CLOUDY    75  57  53 SW9       30.13F
OAK RIDGE      CLOUDY    77  56  48 VRB7      30.15F
DOWNTOWN KNOXV SUNNY     77  59  53 CALM      30.13F
GATLINBURG     SUNNY     75  52  43 SW5       30.14F
MORRISTOWN     SUNNY     75  55  50 SW10      30.14F
JACKSBORO      SUNNY     77  57  50 SW5       30.17F
$$

TNZ083-085-099-262100-
SOUTHEAST TENNESSEE

CITY           SKY/WX    TMP DP  RH WIND       PRES   REMARKS
CHATTANOOGA    CLOUDY    80  55  42 NW9       30.13F
$$

SKY/WX REPORTED AS FAIR MEANS FEW OR NO CLOUDS BELOW
12 THOUSAND FEET.





USA.gov is the U.S. government's official web portal to all federal, state and local government web resources and services.